| time (UTC) | temp F | wind direction | speed knots | gust knots | rain 1hr in | rain 24hr in | rain mn in | humidity % | barometer mb |
| 20260502221911 | 47 | 49 | 0.9 | 5.2 | 0.00 | 0.01 | 0.01 | 47 | 1015.6 |
| 20260502221408 | 47 | 43 | 0.9 | 2.6 | 0.00 | 0.01 | 0.01 | 48 | 1015.7 |
| 20260502220905 | 47 | 60 | 0.9 | 2.6 | 0.00 | 0.01 | 0.01 | 48 | 1015.9 |
| 20260502220401 | 48 | 63 | 1.7 | 5.2 | 0.00 | 0.01 | 0.01 | 48 | 1015.5 |
| 20260502215857 | 48 | 19 | 0.9 | 5.2 | 0.00 | 0.01 | 0.01 | 47 | 1015.8 |
| 20260502215355 | 47 | 62 | 1.7 | 5.2 | 0.00 | 0.01 | 0.01 | 50 | 1015.8 |
| 20260502214852 | 47 | 70 | 0.0 | 1.7 | 0.00 | 0.01 | 0.01 | 53 | 1015.8 |
| 20260502214348 | 46 | 26 | 0.9 | 3.5 | 0.00 | 0.01 | 0.01 | 52 | 1015.7 |
| 20260502213846 | 47 | 26 | 3.5 | 6.1 | 0.00 | 0.01 | 0.01 | 51 | 1015.8 |
| 20260502213343 | 47 | 50 | 2.6 | 5.2 | 0.00 | 0.01 | 0.01 | 52 | 1015.8 |
| 20260502212842 | 47 | 1 | 0.9 | 5.2 | 0.00 | 0.01 | 0.01 | 52 | 1015.8 |
| 20260502212340 | 47 | 32 | 3.5 | 5.2 | 0.00 | 0.01 | 0.01 | 51 | 1015.6 |
| 20260502211837 | 47 | 61 | 3.5 | 5.2 | 0.00 | 0.01 | 0.01 | 50 | 1015.6 |
| 20260502211332 | 48 | 48 | 3.5 | 6.1 | 0.00 | 0.01 | 0.01 | 48 | 1015.4 |
| 20260502210830 | 49 | 38 | 3.5 | 5.2 | 0.00 | 0.01 | 0.01 | 44 | 1015.6 |
| 20260502210327 | 48 | 256 | 1.7 | 2.6 | 0.00 | 0.01 | 0.01 | 43 | 1015.3 |
| 20260502205824 | 48 | 268 | 1.7 | 7.8 | 0.00 | 0.01 | 0.01 | 44 | 1015.5 |
| 20260502205320 | 48 | 103 | 0.0 | 5.2 | 0.00 | 0.01 | 0.01 | 46 | 1015.5 |
| 20260502204817 | 48 | 2 | 1.7 | 6.1 | 0.00 | 0.01 | 0.01 | 47 | 1015.3 |
| 20260502204314 | 49 | 330 | 1.7 | 7.8 | 0.00 | 0.01 | 0.01 | 45 | 1015.4 |
| 20260502203812 | 48 | 24 | 1.7 | 5.2 | 0.00 | 0.01 | 0.01 | 46 | 1015.5 |
| 20260502203309 | 50 | 50 | 1.7 | 3.5 | 0.00 | 0.01 | 0.01 | 44 | 1015.6 |
| 20260502202809 | 49 | 352 | 3.5 | 3.5 | 0.00 | 0.01 | 0.01 | 46 | 1015.5 |
| 20260502202307 | 49 | 17 | 2.6 | 5.2 | 0.00 | 0.01 | 0.01 | 45 | 1015.5 |
| 20260502201805 | 48 | 70 | 0.0 | 2.6 | 0.00 | 0.01 | 0.01 | 43 | 1015.4 |
| 20260502201301 | 49 | 4 | 3.5 | 6.1 | 0.00 | 0.01 | 0.01 | 44 | 1015.5 |
| 20260502200757 | 49 | 86 | 0.0 | 1.7 | 0.00 | 0.01 | 0.01 | 45 | 1015.7 |
| 20260502200253 | 48 | 13 | 0.0 | 1.7 | 0.00 | 0.01 | 0.01 | 45 | 1015.6 |
| 20260502195752 | 48 | 75 | 0.9 | 7.0 | 0.00 | 0.01 | 0.01 | 45 | 1015.7 |
| 20260502195248 | 49 | 299 | 2.6 | 3.5 | 0.00 | 0.01 | 0.01 | 46 | 1015.7 |
| 20260502194744 | 49 | 346 | 2.6 | 5.2 | 0.00 | 0.01 | 0.01 | 48 | 1015.7 |
| 20260502194242 | 50 | 336 | 0.9 | 2.6 | 0.00 | 0.01 | 0.01 | 45 | 1015.7 |
| 20260502193737 | 49 | 312 | 3.5 | 6.1 | 0.00 | 0.01 | 0.01 | 43 | 1015.8 |
| 20260502193235 | 50 | 307 | 3.5 | 5.2 | 0.00 | 0.01 | 0.01 | 43 | 1015.7 |
| 20260502192734 | 49 | 15 | 4.3 | 7.0 | 0.00 | 0.01 | 0.01 | 45 | 1015.6 |
| 20260502192232 | 50 | 349 | 3.5 | 6.1 | 0.00 | 0.01 | 0.01 | 43 | 1015.8 |
| 20260502191728 | 50 | 249 | 2.6 | 7.0 | 0.00 | 0.01 | 0.01 | 42 | 1015.9 |
| 20260502191227 | 50 | 273 | 3.5 | 6.1 | 0.00 | 0.01 | 0.01 | 43 | 1015.8 |
| 20260502190724 | 49 | 341 | 0.9 | 5.2 | 0.00 | 0.01 | 0.01 | 44 | 1016.0 |
| 20260502190221 | 49 | 10 | 2.6 | 5.2 | 0.00 | 0.01 | 0.01 | 47 | 1016.0 |
| 20260502185721 | 50 | 231 | 2.6 | 5.2 | 0.00 | 0.01 | 0.01 | 44 | 1015.9 |
| 20260502185218 | 49 | 313 | 2.6 | 7.0 | 0.00 | 0.01 | 0.01 | 47 | 1015.9 |
| 20260502184714 | 49 | 340 | 0.9 | 2.6 | 0.00 | 0.01 | 0.01 | 48 | 1015.9 |
| 20260502184209 | 48 | 235 | 4.3 | 7.0 | 0.00 | 0.01 | 0.01 | 46 | 1016.0 |
| 20260502183707 | 48 | 206 | 3.5 | 6.1 | 0.00 | 0.01 | 0.01 | 46 | 1016.1 |
| 20260502183202 | 49 | 37 | 4.3 | 6.1 | 0.00 | 0.01 | 0.01 | 46 | 1015.9 |
| 20260502182658 | 50 | 21 | 3.5 | 7.0 | 0.00 | 0.01 | 0.01 | 47 | 1016.1 |
| 20260502182153 | 50 | 24 | 3.5 | 8.7 | 0.00 | 0.01 | 0.01 | 46 | 1015.9 |
| 20260502181651 | 51 | 283 | 2.6 | 3.5 | 0.00 | 0.01 | 0.01 | 43 | 1015.9 |
| 20260502181150 | 50 | 289 | 5.2 | 7.0 | 0.00 | 0.01 | 0.01 | 43 | 1016.0 |
| 20260502180647 | 49 | 55 | 0.9 | 5.2 | 0.00 | 0.01 | 0.01 | 46 | 1016.0 |
| 20260502180144 | 50 | 336 | 2.6 | 6.1 | 0.00 | 0.01 | 0.01 | 43 | 1016.0 |
| 20260502170109 | 50 | 301 | 4.3 | 7.8 | 0.00 | 0.01 | 0.01 | 44 | 1016.2 |
| 20260502164054 | 50 | 10 | 2.6 | 7.8 | 0.00 | 0.01 | 0.01 | 43 | 1016.3 |
| 20260502163550 | 47 | 287 | 3.5 | 6.1 | 0.00 | 0.01 | 0.01 | 46 | 1016.5 |
| 20260502163047 | 46 | 324 | 3.5 | 6.1 | 0.00 | 0.01 | 0.01 | 49 | 1016.5 |
| 20260502162544 | 46 | 283 | 4.3 | 6.1 | 0.00 | 0.01 | 0.01 | 49 | 1016.3 |
| 20260502162041 | 46 | 26 | 3.5 | 7.0 | 0.00 | 0.01 | 0.01 | 49 | 1016.5 |
| 20260502161539 | 47 | 353 | 1.7 | 3.5 | 0.00 | 0.01 | 0.01 | 49 | 1016.6 |
| 20260502161036 | 47 | 12 | 3.5 | 7.0 | 0.00 | 0.01 | 0.01 | 49 | 1016.6 |
| 20260502160534 | 46 | 267 | 3.5 | 5.2 | 0.00 | 0.01 | 0.01 | 47 | 1016.7 |
| 20260502151941 | 46 | 12 | 1.7 | 3.5 | 0.00 | 0.01 | 0.01 | 52 | 1016.5 |
| 20260502151437 | 46 | 204 | 1.7 | 5.2 | 0.00 | 0.01 | 0.01 | 52 | 1016.6 |
| 20260502150935 | 46 | 57 | 0.9 | 5.2 | 0.00 | 0.01 | 0.01 | 51 | 1016.5 |
| 20260502150432 | 45 | 270 | 0.9 | 1.7 | 0.00 | 0.01 | 0.01 | 53 | 1016.3 |
| 20260502130317 | 40 | 29 | 3.5 | 3.5 | 0.00 | 0.01 | 0.01 | 71 | 1016.2 |
| 20260502123803 | 38 | 30 | 0.9 | 3.5 | 0.00 | 0.01 | 0.01 | 72 | 1016.1 |
| 20260502123300 | 38 | 321 | 0.9 | 1.7 | 0.00 | 0.01 | 0.01 | 73 | 1016.0 |
| 20260502122756 | 37 | 325 | 2.6 | 2.6 | 0.00 | 0.01 | 0.01 | 74 | 1016.1 |
| 20260502122253 | 37 | 13 | 3.5 | 3.5 | 0.00 | 0.01 | 0.01 | 74 | 1016.0 |
| 20260502121751 | 37 | 25 | 0.9 | 1.7 | 0.00 | 0.01 | 0.01 | 75 | 1016.0 |
| 20260502121249 | 37 | 47 | 2.6 | 3.5 | 0.00 | 0.01 | 0.01 | 75 | 1016.0 |
| 20260502120745 | 37 | 2 | 1.7 | 2.6 | 0.00 | 0.01 | 0.01 | 76 | 1015.8 |
| 20260502120242 | 36 | 351 | 1.7 | 2.6 | 0.00 | 0.01 | 0.01 | 76 | 1015.8 |
| 20260502115740 | 36 | 330 | 1.7 | 2.6 | 0.00 | 0.01 | 0.01 | 76 | 1015.7 |
| 20260502115236 | 36 | 30 | 1.7 | 3.5 | 0.00 | 0.01 | 0.01 | 78 | 1015.7 |
| 20260502114732 | 35 | 6 | 0.9 | 2.6 | 0.00 | 0.01 | 0.01 | 79 | 1015.8 |
| 20260502114229 | 35 | 353 | 0.0 | 1.7 | 0.00 | 0.01 | 0.01 | 79 | 1015.8 |
| 20260502113727 | 35 | 27 | 0.9 | 0.9 | 0.00 | 0.01 | 0.01 | 80 | 1015.7 |
| 20260502113224 | 35 | 355 | 0.9 | 0.9 | 0.00 | 0.01 | 0.01 | 81 | 1015.8 |
| 20260502112722 | 35 | 36 | 0.0 | 0.9 | 0.00 | 0.01 | 0.01 | 81 | 1015.7 |
| 20260502112220 | 34 | 5 | 0.0 | 0.9 | 0.00 | 0.01 | 0.01 | 82 | 1015.7 |
| 20260502111717 | 34 | 37 | 0.0 | 0.9 | 0.00 | 0.01 | 0.01 | 82 | 1015.7 |
| 20260502111214 | 34 | 51 | 0.0 | 0.9 | 0.00 | 0.01 | 0.01 | 83 | 1015.7 |
| 20260502110712 | 34 | 34 | 0.9 | 0.9 | 0.00 | 0.01 | 0.01 | 83 | 1015.7 |
| 20260502110209 | 34 | 334 | 0.9 | 0.9 | 0.00 | 0.01 | 0.01 | 84 | 1015.6 |
| 20260502105707 | 34 | 27 | 0.9 | 0.9 | 0.00 | 0.01 | 0.01 | 84 | 1015.5 |
| 20260502105203 | 33 | 63 | 0.0 | 0.0 | 0.00 | 0.01 | 0.01 | 85 | 1015.6 |
| 20260502104700 | 33 | 53 | 0.0 | 0.9 | 0.00 | 0.01 | 0.01 | 85 | 1015.5 |
| 20260502104158 | 33 | 60 | 0.0 | 0.0 | 0.00 | 0.01 | 0.01 | 85 | 1015.6 |
| 20260502103656 | 33 | 57 | 0.0 | 0.0 | 0.00 | 0.01 | 0.01 | 85 | 1015.5 |
| 20260502103153 | 34 | 57 | 0.0 | 0.0 | 0.00 | 0.01 | 0.01 | 85 | 1015.5 |
| 20260502102650 | 34 | 54 | 0.0 | 0.9 | 0.00 | 0.01 | 0.01 | 85 | 1015.6 |
| 20260502102146 | 34 | 41 | 0.0 | 0.9 | 0.00 | 0.01 | 0.01 | 86 | 1015.6 |
| 20260502101644 | 34 | 37 | 0.0 | 0.0 | 0.00 | 0.01 | 0.01 | 86 | 1015.6 |
| 20260502101142 | 34 | 62 | 0.0 | 0.9 | 0.00 | 0.01 | 0.01 | 86 | 1015.7 |
| 20260502100641 | 34 | 66 | 0.0 | 0.9 | 0.00 | 0.01 | 0.01 | 86 | 1015.5 |
| 20260502100138 | 34 | 54 | 0.0 | 0.9 | 0.00 | 0.01 | 0.01 | 86 | 1015.6 |
| 20260502091112 | 35 | 26 | 0.0 | 0.0 | 0.00 | 0.01 | 0.01 | 84 | 1015.5 |
| 20260502090610 | 35 | 25 | 0.9 | 0.9 | 0.00 | 0.01 | 0.01 | 83 | 1015.6 |
| 20260502090107 | 35 | 41 | 0.0 | 0.9 | 0.00 | 0.01 | 0.01 | 84 | 1015.3 |
| 20260502071504 | 36 | 58 | 0.0 | 0.0 | 0.00 | 0.01 | 0.01 | 91 | 1015.3 |
| 20260502071002 | 36 | 55 | 0.0 | 0.9 | 0.00 | 0.01 | 0.01 | 91 | 1015.1 |
| 20260502070500 | 37 | 61 | 0.0 | 0.0 | 0.00 | 0.01 | 0.01 | 91 | 1015.2 |
| 20260502065958 | 37 | 54 | 0.0 | 0.9 | 0.00 | 0.01 | 0.01 | 91 | 1015.5 |
| 20260502065456 | 37 | 71 | 0.0 | 0.0 | 0.00 | 0.01 | 0.01 | 91 | 1015.5 |
| 20260502064954 | 37 | 10 | 0.0 | 0.0 | 0.00 | 0.01 | 0.01 | 92 | 1015.6 |
| 20260502064451 | 37 | 74 | 0.0 | 0.0 | 0.00 | 0.01 | 0.01 | 92 | 1015.6 |
| 20260502063948 | 38 | 19 | 0.0 | 0.0 | 0.00 | 0.01 | 0.01 | 92 | 1015.8 |
| 20260502063446 | 38 | 46 | 0.0 | 0.9 | 0.00 | 0.01 | 0.01 | 92 | 1015.5 |
| 20260502062944 | 38 | 51 | 0.0 | 0.0 | 0.00 | 0.01 | 0.01 | 92 | 1015.7 |
| 20260502062440 | 38 | 43 | 0.0 | 0.0 | 0.00 | 0.01 | 0.01 | 92 | 1015.9 |
| 20260502061939 | 38 | 35 | 0.0 | 0.0 | 0.00 | 0.01 | 0.01 | 92 | 1015.5 |
| 20260502061437 | 38 | 66 | 0.0 | 0.0 | 0.00 | 0.01 | 0.01 | 92 | 1015.8 |
| 20260502060932 | 38 | 91 | 0.0 | 0.0 | 0.00 | 0.01 | 0.01 | 92 | 1015.5 |
| 20260502060428 | 38 | 84 | 0.0 | 0.0 | 0.00 | 0.01 | 0.01 | 92 | 1015.6 |
| 20260502055925 | 38 | 79 | 0.0 | 0.0 | 0.00 | 0.01 | 0.01 | 92 | 1015.6 |
| 20260502055423 | 38 | 74 | 0.0 | 0.0 | 0.00 | 0.01 | 0.01 | 92 | 1015.7 |
| 20260502054923 | 39 | 69 | 0.0 | 0.0 | 0.00 | 0.01 | 0.01 | 92 | 1015.7 |
| 20260502054420 | 39 | 90 | 0.0 | 0.0 | 0.00 | 0.01 | 0.01 | 92 | 1015.8 |
| 20260502053917 | 39 | 59 | 0.0 | 0.9 | 0.07 | 0.01 | 0.01 | 92 | 1016.0 |
| 20260502053414 | 39 | 88 | 0.0 | 0.0 | 0.07 | 0.01 | 0.01 | 92 | 1015.9 |
| 20260502052912 | 39 | 86 | 0.0 | 0.0 | 0.00 | 0.00 | 0.00 | 92 | 1016.0 |
| 20260502052410 | 39 | 35 | 0.0 | 0.0 | 0.00 | 0.00 | 0.00 | 92 | 1015.8 |
| 20260502051907 | 39 | 20 | 0.0 | 0.0 | 0.00 | 0.00 | 0.00 | 92 | 1015.9 |
| 20260502051406 | 38 | 67 | 0.0 | 0.0 | 0.00 | 0.00 | 0.00 | 92 | 1015.8 |
| 20260502050902 | 38 | 62 | 0.0 | 0.0 | 0.00 | 0.00 | 0.00 | 92 | 1015.7 |
| 20260502050359 | 38 | 84 | 0.0 | 0.0 | 0.00 | 0.00 | 0.00 | 92 | 1015.7 |
| 20260502045856 | 38 | 86 | 0.0 | 0.0 | 0.00 | 0.00 | 0.00 | 92 | 1015.8 |
| 20260502045352 | 38 | 86 | 0.0 | 0.0 | 0.00 | 0.00 | 0.00 | 92 | 1015.7 |
| 20260502044849 | 38 | 81 | 0.0 | 0.0 | 0.00 | 0.00 | 0.00 | 92 | 1015.7 |
| 20260502044345 | 38 | 82 | 0.0 | 0.0 | 0.00 | 0.00 | 0.00 | 92 | 1015.9 |
| 20260502043837 | 38 | 84 | 0.0 | 0.0 | 0.00 | 0.00 | 0.00 | 91 | 1015.7 |
| 20260502043334 | 38 | 85 | 0.0 | 0.0 | 0.00 | 0.00 | 0.00 | 91 | 1015.7 |
| 20260502042829 | 39 | 88 | 0.0 | 0.0 | 0.00 | 0.00 | 0.00 | 91 | 1015.7 |
| 20260502042326 | 39 | 90 | 0.0 | 0.0 | 0.00 | 0.00 | 0.00 | 91 | 1015.7 |
| 20260502041823 | 39 | 87 | 0.0 | 0.0 | 0.00 | 0.00 | 0.00 | 91 | 1015.9 |
| 20260502041315 | 39 | 83 | 0.0 | 0.0 | 0.00 | 0.00 | 0.00 | 91 | 1015.8 |
| 20260502040812 | 39 | 84 | 0.0 | 0.0 | 0.00 | 0.00 | 0.00 | 91 | 1015.7 |
| 20260502040309 | 39 | 93 | 0.0 | 0.0 | 0.00 | 0.00 | 0.00 | 91 | 1015.7 |
| 20260502035805 | 39 | 87 | 0.0 | 0.0 | 0.00 | 0.09 | 0.09 | 91 | 1015.8 |
| 20260502035302 | 39 | 90 | 0.0 | 0.0 | 0.00 | 0.09 | 0.09 | 91 | 1015.5 |
| 20260502034759 | 39 | 83 | 0.0 | 0.0 | 0.00 | 0.09 | 0.09 | 90 | 1015.7 |
| 20260502034257 | 39 | 84 | 0.0 | 0.0 | 0.00 | 0.09 | 0.09 | 90 | 1015.6 |
| 20260502033755 | 39 | 85 | 0.0 | 0.0 | 0.00 | 0.09 | 0.09 | 90 | 1015.7 |
| 20260502033252 | 39 | 87 | 0.0 | 0.0 | 0.00 | 0.09 | 0.09 | 90 | 1015.7 |
| 20260502032748 | 39 | 77 | 0.0 | 0.0 | 0.00 | 0.09 | 0.09 | 90 | 1015.5 |
| 20260502032244 | 39 | 67 | 0.0 | 0.0 | 0.00 | 0.09 | 0.09 | 90 | 1015.7 |
| 20260502031743 | 39 | 88 | 0.0 | 0.0 | 0.00 | 0.09 | 0.09 | 90 | 1015.7 |
| 20260502031241 | 39 | 90 | 0.0 | 0.0 | 0.00 | 0.09 | 0.09 | 90 | 1015.8 |
| 20260502030739 | 39 | 92 | 0.0 | 0.0 | 0.00 | 0.09 | 0.09 | 89 | 1016.1 |
| 20260502030236 | 40 | 101 | 0.0 | 0.9 | 0.00 | 0.09 | 0.09 | 89 | 1015.9 |
| 20260502025734 | 40 | 105 | 0.0 | 0.0 | 0.00 | 0.09 | 0.09 | 89 | 1015.8 |
| 20260502025231 | 40 | 86 | 0.0 | 0.0 | 0.00 | 0.09 | 0.09 | 89 | 1015.7 |
| 20260502024729 | 40 | 83 | 0.0 | 0.0 | 0.00 | 0.09 | 0.09 | 89 | 1015.8 |
| 20260502024227 | 40 | 68 | 0.0 | 0.0 | 0.00 | 0.09 | 0.09 | 88 | 1015.9 |
| 20260502023725 | 40 | 68 | 0.0 | 0.0 | 0.00 | 0.09 | 0.09 | 88 | 1015.9 |
| 20260502023222 | 40 | 81 | 0.0 | 0.0 | 0.00 | 0.09 | 0.09 | 88 | 1015.9 |
| 20260502022720 | 40 | 66 | 0.0 | 0.0 | 0.00 | 0.09 | 0.09 | 87 | 1015.8 |
| 20260502022216 | 41 | 71 | 0.0 | 0.0 | 0.00 | 0.09 | 0.09 | 87 | 1015.6 |
| 20260502021713 | 41 | 77 | 0.0 | 0.0 | 0.00 | 0.09 | 0.09 | 87 | 1015.6 |
| 20260502021210 | 41 | 81 | 0.0 | 0.0 | 0.00 | 0.09 | 0.09 | 86 | 1015.7 |
| 20260502020707 | 41 | 95 | 0.0 | 0.0 | 0.00 | 0.09 | 0.09 | 86 | 1015.5 |
| 20260502020204 | 42 | 83 | 0.0 | 0.0 | 0.00 | 0.09 | 0.09 | 85 | 1015.4 |
| 20260502015702 | 42 | 83 | 0.0 | 0.0 | 0.00 | 0.09 | 0.09 | 85 | 1015.4 |
| 20260502015157 | 42 | 73 | 0.0 | 0.0 | 0.00 | 0.09 | 0.09 | 84 | 1015.3 |
| 20260502014656 | 42 | 71 | 0.0 | 0.0 | 0.00 | 0.09 | 0.09 | 83 | 1015.3 |
| 20260502014152 | 42 | 86 | 0.0 | 0.0 | 0.00 | 0.09 | 0.09 | 83 | 1015.3 |
| 20260502013648 | 42 | 81 | 0.0 | 0.0 | 0.00 | 0.09 | 0.09 | 83 | 1015.0 |
| 20260502013144 | 43 | 69 | 0.0 | 1.7 | 0.00 | 0.09 | 0.09 | 82 | 1015.2 |
| 20260502012641 | 43 | 67 | 0.0 | 0.0 | 0.00 | 0.09 | 0.09 | 81 | 1015.0 |
| 20260502012140 | 43 | 87 | 0.0 | 0.0 | 0.00 | 0.09 | 0.09 | 80 | 1014.8 |
| 20260502011636 | 44 | 76 | 0.0 | 0.0 | 0.00 | 0.09 | 0.09 | 78 | 1015.0 |
| 20260502011131 | 44 | 32 | 0.9 | 6.1 | 0.00 | 0.09 | 0.09 | 75 | 1015.2 |
| 20260502010630 | 44 | 57 | 2.6 | 5.2 | 0.00 | 0.09 | 0.09 | 73 | 1014.7 |
| 20260502010126 | 45 | 64 | 0.9 | 7.0 | 0.00 | 0.09 | 0.09 | 72 | 1014.4 |
| 20260502005624 | 46 | 55 | 0.9 | 2.6 | 0.00 | 0.09 | 0.09 | 73 | 1014.4 |
| 20260502005121 | 46 | 53 | 4.3 | 6.1 | 0.00 | 0.09 | 0.09 | 72 | 1014.4 |
| 20260502004616 | 47 | 81 | 2.6 | 5.2 | 0.00 | 0.09 | 0.09 | 70 | 1014.4 |
| 20260502004113 | 47 | 75 | 0.9 | 1.7 | 0.00 | 0.09 | 0.09 | 68 | 1014.4 |
| 20260502003612 | 47 | 63 | 0.0 | 0.0 | 0.00 | 0.09 | 0.09 | 67 | 1014.0 |
| 20260502003108 | 47 | 52 | 0.0 | 0.9 | 0.00 | 0.09 | 0.09 | 66 | 1014.1 |
| 20260502002604 | 48 | 62 | 0.0 | 0.9 | 0.00 | 0.09 | 0.09 | 66 | 1014.1 |
| 20260502002101 | 48 | 59 | 0.0 | 0.0 | 0.00 | 0.09 | 0.09 | 67 | 1014.4 |
| 20260502001600 | 48 | 49 | 0.0 | 0.0 | 0.00 | 0.09 | 0.09 | 66 | 1014.2 |
| 20260502001056 | 48 | 56 | 0.9 | 0.9 | 0.00 | 0.09 | 0.09 | 66 | 1014.3 |
| 20260502000555 | 48 | 65 | 0.0 | 0.0 | 0.00 | 0.09 | 0.09 | 66 | 1014.0 |
| 20260502000051 | 48 | 68 | 0.0 | 0.9 | 0.00 | 0.09 | 0.09 | 65 | 1014.0 |
| 20260501235547 | 48 | 36 | 0.0 | 0.9 | 0.00 | 0.09 | 0.09 | 65 | 1014.0 |
| 20260501235043 | 48 | 54 | 0.0 | 0.9 | 0.00 | 0.09 | 0.09 | 64 | 1013.9 |
| 20260501234539 | 49 | 73 | 0.0 | 0.9 | 0.00 | 0.09 | 0.09 | 63 | 1013.6 |
| 20260501234037 | 49 | 60 | 0.0 | 0.9 | 0.00 | 0.09 | 0.09 | 63 | 1013.5 |
| 20260501233535 | 50 | 26 | 0.9 | 2.6 | 0.00 | 0.09 | 0.09 | 60 | 1013.6 |
| 20260501233031 | 49 | 300 | 0.9 | 2.6 | 0.00 | 0.09 | 0.09 | 62 | 1013.4 |
| 20260501232528 | 49 | 85 | 0.0 | 1.7 | 0.00 | 0.09 | 0.09 | 62 | 1013.6 |
| 20260501232025 | 49 | 17 | 1.7 | 2.6 | 0.00 | 0.09 | 0.09 | 62 | 1013.5 |
| 20260501231524 | 49 | 67 | 0.0 | 0.0 | 0.00 | 0.09 | 0.09 | 63 | 1013.5 |
| 20260501231021 | 49 | 49 | 0.0 | 1.7 | 0.00 | 0.09 | 0.09 | 62 | 1013.5 |
| 20260501230520 | 49 | 67 | 0.9 | 2.6 | 0.00 | 0.09 | 0.09 | 63 | 1013.4 |
| 20260501230017 | 49 | 296 | 0.9 | 0.9 | 0.00 | 0.09 | 0.09 | 64 | 1013.5 |
| 20260501225509 | 48 | 58 | 0.0 | 3.5 | 0.00 | 0.09 | 0.09 | 64 | 1013.2 |
| 20260501225004 | 49 | 343 | 3.5 | 5.2 | 0.00 | 0.09 | 0.09 | 64 | 1013.6 |
| 20260501224502 | 49 | 71 | 0.0 | 1.7 | 0.00 | 0.09 | 0.09 | 64 | 1013.4 |
| 20260501223959 | 49 | 28 | 2.6 | 3.5 | 0.00 | 0.09 | 0.09 | 64 | 1013.6 |
| 20260501223455 | 49 | 39 | 0.9 | 3.5 | 0.00 | 0.09 | 0.09 | 63 | 1013.4 |
| 20260501222950 | 49 | 61 | 0.0 | 2.6 | 0.00 | 0.09 | 0.09 | 63 | 1013.5 |
| 20260501222448 | 49 | 56 | 1.7 | 3.5 | 0.00 | 0.09 | 0.09 | 63 | 1013.4 |